Tracking 18957 objects as of 23-Jan-2018
HD Live streaming from Space Station
objects crossing your sky now

FENGYUN 1C DEB

Track FENGYUN 1C DEB now!
10-day predictions


NORAD ID: 35128
Int'l Code: 1999-025DLG
Perigee: 786.0 km
Apogee: 982.5 km
Inclination: 98.3 °
Period: 102.5 minutes
Semi major axis: 7255 km
RCS: 0.0122 m2 (small)
Launch date: May 10, 1999
Source: People's Republic of China (PRC)
Launch site: Taiyaun Space Center, China (TSC)

Note: This is SATELLITE DEBRIS
aabbcc
Your satellite tracking list
Your tracking list is empty




NASA's NSSDC Master Catalog

Two Line Element Set (TLE):
1 35128U 99025DLG 18021.92385006 +.00001140 +00000-0 +67714-3 0  9993
2 35128 098.3447 052.6100 0135365 002.2998 357.8765 14.04831050500285
Source of the keplerian elements: AFSPC